Location: Dampvalley
(47.9094°N, 6.1967°E)
Time: 05:32:41
(UTC+00:00)

SO-50 - Pass Details

Date: 04 December 2022
Orbit: 584 x 695 km, 64.6° (Epoch: 05 February)

Event Time Altitude Azimuth Distance (km) Brightness Sun altitude
Rises 05:24:51 0° 194° (SSW) 2,991 ? -16.4°
Reaches altitude 10° 05:27:14 10° 187° (S) 2,098 ? -16.0°
Maximum altitude 05:31:42 40° 119° (ESE) 1,016 ? -15.3°
Drops below altitude 10° 05:36:16 10° 51° (NE) 2,154 ? -14.5°
Sets 05:38:44 0° 44° (NE) 3,081 ? -14.2°
